• Processing (Info)

  • MPEC 2005-N67 : 2005 NG56

    The following Minor Planet Electronic Circular may be linked-to from your own Web pages, but must not otherwise be redistributed electronically.

    A form allowing access to any MPEC is at the bottom of this page.


    Read MPEC 2005-N66 Read MPEC 2005-N68


    M.P.E.C. 2005-N67                                Issued 2005 July 13, 13:51 UT
    
         The Minor Planet Electronic Circulars contain information on unusual
             minor planets and routine data on comets.  They are published
       on behalf of Commission 20 of the International Astronomical Union by the
              Minor Planet Center, Smithsonian Astrophysical Observatory,
                              Cambridge, MA 02138, U.S.A.
    
                      Supported in part by the Brinson Foundation
                 Prepared using the Tamkin Foundation Computer Network
    
                                  MPC@CFA.HARVARD.EDU
              URL http://cfa-www.harvard.edu/iau/mpc.html  ISSN 1523-6714
    
                                       2005 NG56
    
    Observations:
         K05N56G* C2005 07 11.29030 19 27 37.19 +64 08 56.5          18.5   EN067704
         K05N56G  C2005 07 11.30121 19 28 28.06 +64 03 29.4          19.0   EN067704
         K05N56G  C2005 07 11.31187 19 29 17.89 +63 58 06.5          18.9   EN067704
         K05N56G  C2005 07 11.32264 19 30 08.01 +63 52 39.4          19.4   EN067704
         K05N56G  C2005 07 12.98836821 15 01.73 +41 16 44.3                 EN067J95
         K05N56G  C2005 07 12.98917821 15 03.86 +41 15 51.8                 EN067J95
         K05N56G  C2005 07 12.98997721 15 05.93 +41 15 00.3          17.3 R EN067J95
         K05N56G  C2005 07 13.00296621 15 39.57 +41 00 58.7                 EN067J95
         K05N56G  C2005 07 13.00445321 15 43.40 +40 59 22.2                 EN067J95
         K05N56G  C2005 07 13.00588821 15 47.10 +40 57 49.0          17.0 R EN067J95
         K05N56G  C2005 07 13.09932221 19 42.44 +39 15 14.3                 EN067J95
         K05N56G  C2005 07 13.10093421 19 46.40 +39 13 26.8                 EN067J95
         K05N56G  C2005 07 13.10222021 19 49.58 +39 12 00.4          16.5 R EN067J95
         K05N56G 2C2005 07 13.38234 21 31 19.66 +33 55 48.2          16.2 R EN067H06
         K05N56G 2C2005 07 13.38448 21 31 24.24 +33 53 19.0          16.3 R EN067H06
         K05N56G 2C2005 07 13.38664 21 31 28.89 +33 50 49.2          16.3 R EN067H06
         K05N56G 5C2005 07 13.44045 21 33 29.41 +32 48 08.4                 EN067673
         K05N56G 5C2005 07 13.44589 21 33 40.84 +32 41 49.7                 EN067673
         K05N56G 5C2005 07 13.44734 21 33 43.93 +32 40 06.5                 EN067673
         K05N56G 5C2005 07 13.46175 21 34 14.19 +32 23 17.0                 EN067673
         K05N56G 5C2005 07 13.46273 21 34 16.11 +32 22 12.1                 EN067673
    
    Observer details:
    673 Table Mountain Observatory, Wrightwood.  Observer D. Mayes.  0.6-m
        reflector + CCD.
    704 Lincoln Laboratory ETS, New Mexico.  Observers M. Blythe, F. Shelly,
        M. Bezpalko, R. Huber, L. Manguso, D. Torres, R. Kracke, M. McCleary,
        H. Stange, A. Milner.  Measurers J. Stuart, R. Sayer, J. Evans, J. Kommers.
        1.0-m f/2.15 reflector + CCD.
    H06 New Mexico Skies Observatory.  Observer R. Hutsebaut.  0.25-m reflector
        + CCD.
    J95 Great Shefford.  Observer P. Birtwhistle.  0.40-m f/6.0 Schmidt-Cassegrain
        + CCD.
    
    Orbital elements:
    2005 NG56
    Epoch 2005 Aug. 18.0 TT = JDT 2453600.5                 MPC
    M  11.99680              (2000.0)            P               Q
    n   0.21124114     Peri.  150.29743     -0.07060528     +0.96266316
    a   2.7922248      Node   114.56145     -0.96245482     +0.00309301
    e   0.6476372      Incl.   16.69824     -0.26209847     -0.27068446
    P   4.67           H   22.9           G   0.15           U   7
    Residuals in seconds of arc
    050711 704  0.4+  0.0     050713 J95  0.0   0.1-    050713 H06  0.6-  0.0
    050711 704  0.6-  0.4-    050713 J95  0.1-  0.0     050713 H06  0.6-  0.3+
    050711 704  0.2+  0.7-    050713 J95  0.0   0.0     050713 673  0.9+  1.2-
    050711 704  0.2+  1.5+    050713 J95  0.1+  0.2+    050713 673  0.3+  0.9+
    050712 J95  0.2-  0.0     050713 J95  0.1-  0.3+    050713 673  0.7+  0.7-
    050712 J95  0.1+  0.2-    050713 J95  0.0   0.2-    050713 673  0.3+  0.4+
    050712 J95  0.0   0.0     050713 H06  0.2-  0.6+    050713 673 (1.4-  4.3+)
    
    Ephemeris:
    2005 NG56                a,e,i = 2.79, 0.65, 17                  q = 0.9839
    Date    TT    R. A. (2000) Decl.     Delta      r     Elong.  Phase     V
    2005 07 09    16 14.27   +71 19.2    0.0428   1.011    81.4    96.2    19.5
    2005 07 10    17 33.29   +70 30.7    0.0362   1.014    85.4    92.5    19.0
    2005 07 11    19 02.97   +66 16.7    0.0302   1.018    91.5    86.8    18.4
    2005 07 12    20 20.20   +56 41.4    0.0254   1.022   100.5    78.1    17.7
    2005 07 13    21 15.32   +41 06.5    0.0224   1.025   112.4    66.4    17.0
    2005 07 14    21 52.57   +21 55.0    0.0221   1.029   124.7    54.3    16.7
    2005 07 15    22 18.14   +04 06.2    0.0245   1.033   133.0    46.0    16.7
    2005 07 16    22 36.32   -09 22.3    0.0291   1.038   136.3    42.6    17.0
    2005 07 17    22 49.71   -18 46.5    0.0349   1.042   136.8    41.9    17.3
    2005 07 18    22 59.89   -25 19.1    0.0415   1.047   136.3    42.2    17.7
    2005 07 19    23 07.81   -29 59.7    0.0485   1.051   135.5    42.6    18.1
    
    2005 07 29    23 37.74   -45 15.2    0.126    1.106   133.7    41.6    20.2
    2005 08 08    23 39.50   -48 17.1    0.207    1.172   136.0    37.0    21.3
    2005 08 18    23 33.47   -48 47.4    0.292    1.246   138.4    32.6    22.1
    
    Kyle E. Smalley              (C) Copyright 2005 MPC           M.P.E.C. 2005-N67
    

    Read MPEC 2005-N66 Read MPEC 2005-N68


    MPEC number:

    Enter an MPEC number in one of the following forms:

    • 1997-B01 (the full form)
    • J97B01 (the packed version of the full form)
    • B01 (the abbreviated form)